Theta_e
346 343 334 330 316 313 308 314 317 316 317 319 324 326 324 325 318 311 346 349 350 349 352 354 360 361 360 359 360 359 360 361 360 360 360 360 359 358 357 356 355 356 355 355 356 357 359 359 360
327 331 329 327 311 304 307 315 312 316 318 320 325 328 325 320 333 339 341 349 350 349 348 351 358 358 358 358 359 360 360 360 360 360 359 359 358 356 354 355 357 358 355 356 357 358 358 359 361
330 330 326 318 312 307 308 309 312 319 320 321 323 330 328 324 332 338 346 350 349 348 348 351 358 357 356 357 358 358 358 359 360 358 357 357 356 353 352 354 356 357 356 357 356 356 358 358 361
326 325 324 316 310 314 314 314 317 315 316 325 327 323 328 335 331 344 348 348 347 347 349 355 357 357 357 355 356 357 357 359 359 358 356 355 353 351 351 354 357 358 358 355 355 355 355 355 360
321 317 312 308 313 316 319 320 312 313 319 327 327 323 325 331 339 346 345 346 345 347 349 351 357 357 356 354 356 357 358 358 359 357 355 353 352 350 351 355 357 358 357 356 354 354 353 356 359
311 311 306 304 313 318 320 316 316 314 319 325 324 325 324 330 329 337 340 342 347 346 347 349 355 356 356 356 357 357 357 357 358 357 356 354 352 350 352 356 357 357 356 354 358 359 355 356 358
309 305 304 310 312 315 313 315 315 316 315 321 329 322 324 326 328 331 339 345 344 344 345 345 348 349 355 356 356 357 357 357 357 356 356 354 352 351 354 357 357 357 353 359 358 357 357 357 355
310 307 303 312 310 311 318 316 318 317 316 329 333 323 320 325 330 331 340 339 338 340 342 342 345 344 345 347 353 354 355 356 356 356 355 354 353 352 354 355 357 355 354 358 357 358 357 355 352
312 302 304 310 313 315 319 311 316 322 321 323 329 331 330 331 330 327 331 335 336 337 338 338 341 340 340 343 348 352 353 353 353 353 355 352 343 342 349 353 357 352 359 359 359 358 358 356 354
306 302 306 316 318 316 314 314 314 317 321 322 327 331 331 331 327 324 322 327 332 332 333 336 336 337 336 344 344 343 345 344 344 345 344 344 340 342 349 355 353 357 359 360 359 358 356 356 340
307 305 312 309 313 310 311 312 318 317 319 323 324 327 329 328 326 323 323 322 322 330 330 332 332 333 332 337 342 337 336 337 339 339 339 339 342 346 343 338 339 349 357 355 356 352 349 341 338
302 311 313 310 313 309 308 313 313 316 321 328 329 329 328 327 324 323 321 321 320 321 326 328 329 328 329 337 336 333 334 334 335 337 339 339 341 343 332 331 331 333 343 343 348 347 343 341 336
304 310 312 313 311 311 315 313 313 310 328 330 329 329 327 324 323 322 322 321 319 318 320 326 327 327 331 332 330 332 332 334 335 337 341 345 345 336 336 332 331 329 334 339 339 341 342 331 330
307 308 310 310 307 309 311 310 311 314 328 326 326 324 323 324 324 320 319 318 317 318 320 326 325 329 331 327 326 330 331 334 337 341 346 347 349 344 345 337 336 330 333 339 338 335 332 331 329
307 303 307 308 309 308 310 307 309 314 327 324 323 323 323 322 322 319 319 317 318 320 321 325 324 333 328 326 326 333 334 337 341 344 349 349 348 347 339 338 337 335 336 328 334 333 332 333 331
303 300 296 306 309 312 309 302 312 316 322 323 323 323 322 321 320 320 320 320 319 322 321 327 330 330 334 334 332 341 338 342 344 346 350 349 348 349 344 342 340 339 334 332 331 332 330 332 330
298 294 297 302 309 307 308 304 313 316 317 320 323 324 323 322 321 320 322 321 322 322 322 326 328 329 332 333 340 340 341 341 344 345 351 350 350 350 351 346 343 339 335 332 328 324 331 330 330
294 294 296 298 303 305 305 305 307 314 317 318 317 322 324 323 323 322 322 323 323 324 324 326 328 329 330 339 337 339 340 344 345 345 347 350 348 349 347 349 342 340 335 335 329 325 328 331 333
301 298 298 301 305 302 300 302 303 306 309 310 317 318 322 324 326 324 322 323 324 326 325 325 325 330 331 334 335 335 335 338 342 343 344 350 348 348 347 349 340 338 336 335 330 327 326 329 330
301 297 297 301 304 299 300 299 301 305 306 306 306 312 311 323 326 325 323 322 323 326 327 327 327 335 332 332 336 335 335 336 341 342 342 349 348 347 352 349 341 339 339 339 332 325 324 325 329
298 297 298 298 302 302 300 298 301 305 306 307 308 309 311 316 325 325 325 324 323 326 328 328 333 335 336 335 335 335 336 337 336 339 339 344 349 349 355 350 342 340 341 339 332 328 325 322 327
295 303 303 302 298 292 300 290 299 303 303 305 305 308 316 321 325 326 326 324 327 325 331 329 332 337 335 337 336 334 334 333 334 336 337 339 347 349 354 351 344 340 341 337 333 333 329 324 323
299 304 304 303 297 295 297 292 297 302 301 303 308 314 318 323 327 329 329 334 336 334 330 332 330 334 335 333 336 336 334 335 334 335 334 337 341 347 354 351 348 342 342 338 336 331 329 329 324
306 302 302 300 295 289 295 294 295 299 306 310 314 316 321 325 327 329 332 334 335 337 338 336 332 331 332 336 333 330 332 333 333 334 333 335 341 345 349 351 350 344 342 339 338 335 332 328 326
301 297 289 289 288 289 299 297 296 308 312 315 315 319 321 325 326 326 329 331 333 333 334 336 340 335 336 336 335 336 332 329 330 329 332 332 337 344 345 350 348 346 343 341 339 334 332 330 328
299 298 290 286 288 294 301 298 303 317 319 319 319 319 320 320 322 321 322 327 332 333 330 328 330 336 340 341 339 339 338 337 334 334 333 333 335 339 346 350 349 347 345 342 338 335 333 332 330
300 296 301 295 295 292 296 306 313 317 317 318 318 319 318 316 318 318 319 319 321 322 321 321 321 327 328 330 330 333 342 345 341 340 336 336 336 337 341 348 350 347 345 343 338 336 334 332 330
301 305 295 295 289 288 294 298 301 310 313 315 314 315 315 315 316 316 316 316 316 316 317 318 317 318 322 320 322 325 330 335 336 343 341 337 339 337 334 343 349 348 346 343 340 337 335 332 330
301 297 299 298 296 290 289 298 312 311 313 312 313 314 313 313 314 314 315 315 315 316 316 317 316 316 316 318 317 316 322 328 331 330 336 345 344 342 342 340 339 346 346 345 341 339 336 331 330
304 301 301 294 293 295 294 296 315 314 315 315 314 316 315 316 314 315 315 315 313 312 312 312 314 313 315 317 316 316 317 319 324 328 332 334 336 346 346 346 345 344 347 346 341 336 336 331 329
Wind_Speed
7 6 3 2 5 5 5 9 7 10 9 6 14 17 14 7 5 6 12 21 22 17 13 13 17 17 17 16 15 15 14 14 13 13 13 12 12 11 10 9 8 8 8 7 7 7 6 7 12
4 6 3 2 5 3 6 7 11 8 7 9 15 20 19 14 14 19 11 19 20 17 11 11 16 16 17 16 15 14 13 14 13 13 13 12 10 10 9 8 7 7 7 7 6 6 6 7 11
3 5 2 5 2 4 5 7 8 7 6 11 6 12 5 10 14 7 22 22 19 15 13 13 16 16 16 15 15 14 14 13 13 13 12 11 9 8 7 6 6 6 6 6 5 5 5 5 10
4 3 4 3 8 13 10 13 6 7 7 15 16 9 5 5 7 16 24 22 19 15 13 15 16 15 15 16 15 14 14 12 12 13 11 10 8 6 6 5 5 5 6 5 4 4 4 4 10
2 3 3 3 11 14 15 13 7 8 13 19 13 7 5 10 24 27 24 21 21 16 13 12 15 15 15 16 15 14 13 12 12 12 10 9 6 5 4 4 5 6 5 5 5 3 2 3 11
2 1 2 4 7 13 19 10 15 9 14 15 16 11 4 7 8 17 20 20 21 19 15 14 16 14 14 14 14 13 13 12 11 10 9 7 5 4 3 3 4 5 5 5 4 2 3 4 11
5 0 8 12 21 13 2 7 13 11 10 8 13 7 7 7 8 9 20 21 19 18 15 10 10 12 15 13 12 12 12 12 11 9 8 6 5 4 3 3 4 3 4 4 3 4 4 5 11
4 2 6 10 18 25 17 7 12 10 7 16 16 7 7 9 10 9 22 20 19 16 15 12 9 7 7 7 14 13 12 11 10 9 7 6 5 5 4 4 4 4 4 4 3 5 5 6 10
7 3 10 7 16 19 8 7 6 9 11 8 5 11 18 14 10 7 19 18 15 14 15 13 11 8 7 7 9 11 13 12 11 9 8 6 4 5 6 7 7 5 5 6 6 4 4 5 3
6 4 10 13 16 7 4 10 9 10 15 16 18 20 17 12 9 8 8 18 16 17 16 16 14 12 11 10 7 6 7 4 4 5 6 4 5 5 6 7 8 7 6 6 5 3 5 5 1
9 11 13 2 8 4 2 5 2 10 11 18 23 17 16 9 9 9 9 10 14 19 15 17 16 14 12 9 7 4 3 3 4 6 6 6 5 3 5 3 3 3 7 3 3 3 3 4 4
5 12 10 4 6 2 2 4 5 0 15 20 20 20 16 12 10 10 10 9 10 15 17 18 17 14 12 9 7 5 5 5 4 6 7 5 4 6 1 1 4 1 2 5 5 3 4 5 4
6 10 9 7 8 7 6 2 5 2 20 21 20 18 13 9 10 9 10 10 11 10 11 18 15 14 12 12 9 8 8 7 7 6 7 7 5 6 4 4 1 4 5 4 4 5 4 4 9
10 10 7 7 5 5 7 7 6 6 23 21 20 16 13 12 10 8 9 9 11 11 12 17 14 10 14 10 12 9 8 9 8 6 7 9 7 9 8 5 7 2 5 6 6 5 5 4 6
10 7 9 10 8 8 6 2 4 6 22 21 19 18 15 16 13 11 10 10 13 13 11 18 11 12 14 12 11 7 9 9 8 9 10 8 6 14 13 13 8 7 7 7 6 2 4 5 4
9 5 5 11 10 15 5 7 8 4 21 20 21 20 20 19 17 13 11 11 11 14 12 15 14 12 10 10 8 5 9 7 8 9 8 9 8 18 12 7 7 6 4 4 5 4 3 5 5
7 6 9 12 16 9 7 6 10 5 16 18 18 19 19 18 16 16 15 15 15 15 12 14 12 13 10 8 6 6 6 5 5 5 8 11 7 8 8 9 6 7 5 4 4 3 3 4 4
11 5 8 9 10 10 9 7 2 3 8 6 12 16 20 21 22 20 19 17 19 16 13 14 10 12 9 4 3 2 1 3 5 5 7 11 8 7 6 5 6 5 4 3 2 3 3 5 8
9 8 8 8 8 8 6 4 2 3 2 5 10 12 17 23 19 19 18 16 17 13 13 11 10 8 8 3 4 3 4 3 3 4 6 10 9 8 8 5 10 6 6 6 7 4 5 3 4
8 4 8 10 8 4 7 7 5 8 7 6 2 8 8 14 17 17 18 17 18 16 16 11 11 10 8 7 4 3 3 3 3 4 4 7 10 11 9 9 8 9 5 7 7 6 2 2 3
3 4 7 8 8 8 6 10 8 10 6 6 7 3 7 8 20 20 19 18 17 16 18 17 14 15 11 7 3 1 1 2 4 3 4 5 10 11 9 10 10 7 8 8 7 6 7 6 4
3 9 11 9 3 4 5 6 10 9 11 6 7 8 15 22 13 9 6 6 14 17 13 16 15 16 16 15 11 9 9 9 4 6 4 6 7 8 10 12 12 11 6 6 9 11 10 6 6
9 5 5 6 4 5 9 4 12 7 7 7 10 15 17 23 21 20 13 17 9 6 2 6 13 15 15 16 15 14 14 11 5 6 6 7 7 10 11 14 12 13 10 8 10 6 8 6 7
6 5 5 5 2 4 9 6 10 8 15 12 12 14 16 18 19 18 17 17 15 14 12 1 5 4 3 6 5 9 8 10 7 10 7 7 9 10 13 15 14 14 14 12 13 10 13 11 5
4 5 4 5 2 6 7 1 9 10 15 19 16 15 13 15 16 15 16 14 13 11 9 9 8 4 5 4 3 5 7 5 7 7 6 7 8 9 13 15 15 14 15 15 13 10 12 12 11
8 10 7 3 1 2 7 5 4 20 19 19 18 16 16 14 13 14 13 11 13 11 9 10 12 9 9 2 6 6 9 8 10 9 7 7 10 9 11 13 15 18 17 16 13 9 10 11 11
5 4 12 2 3 5 2 11 13 17 14 15 16 16 13 11 11 12 13 11 11 14 13 10 11 9 8 6 4 8 3 7 12 16 13 10 12 6 7 13 15 17 17 17 14 13 14 14 14
1 3 6 5 2 3 4 4 7 13 14 13 11 12 11 10 13 12 11 10 10 9 8 11 10 7 6 8 7 7 7 6 6 7 12 13 13 12 12 9 13 15 16 16 16 15 15 16 14
7 2 1 4 5 3 2 4 2 10 13 14 12 10 9 9 9 8 9 9 10 10 10 8 8 8 7 7 7 8 6 8 9 6 5 7 13 14 14 11 13 15 18 17 15 16 13 15 16
5 1 6 6 6 1 4 5 7 13 11 11 10 8 7 8 7 8 8 9 9 8 8 8 8 8 6 5 4 5 8 7 7 11 12 7 8 10 12 13 14 13 16 17 18 19 17 17 19
Wind_Direction
166 189 212 16 65 80 252 277 175 81 55 59 57 81 85 61 96 143 111 122 126 131 136 132 132 132 131 133 131 129 126 120 117 114 106 100 96 93 87 85 86 86 83 76 67 58 46 31 41
195 207 240 84 62 5 275 209 80 97 129 102 75 85 70 67 79 118 106 125 128 129 132 128 132 131 132 132 132 130 126 121 122 118 112 105 99 92 87 81 81 80 78 73 65 54 40 31 48
356 286 46 76 21 247 251 131 143 156 129 109 93 58 55 117 121 121 127 130 129 131 131 137 134 133 135 134 134 131 128 127 125 122 116 106 99 93 89 84 79 76 71 65 58 48 36 28 56
172 325 38 66 263 264 297 318 150 101 68 94 106 81 50 105 110 135 133 134 131 129 125 133 136 135 136 137 136 134 135 134 129 125 122 116 110 101 93 83 76 72 67 61 48 37 26 20 66
261 260 182 206 282 298 282 259 151 101 111 108 105 108 80 76 114 135 141 142 130 127 132 133 138 140 142 143 143 139 138 136 131 132 130 126 119 109 98 82 71 67 56 37 21 17 38 49 76
303 191 74 141 167 280 264 232 87 81 101 109 100 110 90 128 117 141 142 126 132 134 137 141 144 147 148 149 146 142 141 141 140 138 137 137 135 123 103 84 79 68 46 40 42 94 148 124 87
224 209 249 64 33 288 291 122 95 89 66 102 144 106 143 137 148 135 112 122 127 129 133 135 143 154 153 153 150 147 146 146 143 142 147 153 155 149 133 122 106 89 71 83 105 143 173 117 104
219 167 292 109 165 265 264 81 113 109 112 130 148 136 165 167 151 147 127 130 130 133 136 145 143 144 145 156 161 158 154 149 148 156 164 176 184 189 183 159 141 124 130 123 149 198 183 172 129
254 245 258 156 192 243 267 108 126 135 98 66 69 129 139 146 144 143 131 133 133 141 147 147 153 158 157 155 168 166 163 161 166 176 183 196 203 202 195 190 156 145 157 151 195 222 259 282 114
173 196 244 202 190 239 241 149 164 120 114 98 92 105 130 141 148 154 138 145 150 153 157 155 159 171 167 167 156 160 172 160 174 185 194 204 217 205 162 135 151 162 162 165 222 240 270 296 346
251 238 256 332 146 28 12 97 24 121 129 143 137 140 145 151 161 154 160 156 150 160 160 160 163 171 169 153 158 169 162 168 192 201 194 203 219 173 136 150 151 176 161 174 200 257 262 281 294
251 252 260 182 129 319 40 34 9 244 153 149 141 143 151 160 169 165 173 161 155 151 160 160 167 166 166 150 165 166 163 182 193 208 197 200 207 95 134 216 133 235 221 187 190 200 231 253 292
275 259 271 287 153 203 116 217 207 64 133 136 139 140 150 159 178 175 176 163 156 149 144 160 166 163 157 159 168 173 179 183 195 200 205 204 131 131 346 293 123 126 284 195 194 205 225 195 90
279 287 282 322 307 258 163 219 147 177 138 139 143 144 155 163 186 176 172 164 153 150 146 161 171 142 158 167 175 181 180 187 185 199 207 206 128 142 214 335 316 229 248 248 205 177 174 102 111
306 326 325 321 297 290 262 263 288 166 142 145 151 154 167 169 182 178 180 160 156 159 153 164 163 143 164 175 179 176 185 185 184 191 202 200 193 139 146 178 239 233 232 160 156 152 98 111 112
326 352 19 280 265 260 139 245 264 235 149 161 165 164 172 175 182 171 168 158 158 159 158 166 170 159 165 175 179 178 189 179 182 183 190 199 191 140 175 184 204 213 150 126 129 148 141 141 135
306 245 243 267 258 248 139 206 246 291 152 172 172 173 175 176 176 176 169 159 163 163 161 166 169 172 170 179 174 186 189 179 191 168 181 194 194 164 155 184 178 192 153 150 152 149 155 156 162
253 258 268 246 273 262 186 196 230 225 138 172 216 175 177 180 187 175 171 163 165 163 163 165 160 174 161 163 174 192 182 229 198 204 171 183 190 171 169 169 154 152 142 141 142 185 199 163 174
248 264 269 299 327 26 0 329 258 246 294 278 229 199 181 185 179 172 170 163 160 156 158 159 144 170 162 139 162 180 214 232 250 203 202 179 182 181 176 161 160 172 167 176 182 166 194 180 150
263 339 320 315 319 350 310 294 272 296 256 255 215 207 199 190 164 171 171 164 166 162 166 154 160 154 174 179 177 167 199 235 235 226 200 186 181 189 184 156 176 175 153 178 188 158 173 196 176
7 312 300 271 305 335 355 332 307 275 241 253 292 152 62 106 170 173 172 171 164 164 170 174 169 159 165 165 154 190 126 301 246 256 234 197 203 189 177 174 170 181 174 195 186 170 166 190 197
282 245 245 252 339 281 74 278 283 250 236 234 253 63 72 58 118 75 71 147 176 177 170 175 174 173 173 166 177 184 209 217 209 224 218 224 198 198 176 179 176 176 188 194 195 199 182 145 194
232 280 5 2 7 26 316 26 275 307 195 227 89 89 84 84 81 65 86 92 95 102 266 215 191 187 184 188 181 189 197 202 196 211 213 218 213 200 188 187 175 180 189 196 206 187 198 190 187
279 8 352 347 34 341 248 175 284 272 104 94 81 86 89 87 88 86 87 84 74 57 45 120 209 259 332 269 249 224 207 212 208 220 222 220 218 212 201 191 187 184 193 194 206 204 207 194 175
134 55 347 338 13 211 264 17 219 96 101 111 97 73 75 83 78 79 92 87 82 71 49 40 41 142 177 238 242 255 290 266 257 245 243 247 228 225 215 196 194 194 199 203 207 195 203 201 189
182 156 167 236 202 232 296 47 25 76 62 66 67 71 69 69 73 68 67 76 82 83 71 51 40 58 45 256 292 231 218 236 239 228 230 243 239 235 222 209 208 204 202 207 200 195 204 202 205
298 157 222 148 296 46 144 74 56 75 74 71 70 63 57 61 70 69 59 59 65 61 52 48 42 36 48 54 36 39 328 259 248 247 235 238 245 252 235 217 212 211 206 208 201 205 197 197 203
212 239 21 357 116 261 314 149 162 117 110 91 72 58 49 55 52 55 51 52 53 61 60 43 29 46 35 23 21 5 345 338 355 301 256 239 238 244 237 226 223 212 219 221 215 211 209 199 201
329 279 344 124 129 173 345 317 344 113 108 100 82 68 59 53 58 55 54 46 48 40 32 34 26 6 13 21 2 352 347 335 337 339 338 288 257 238 239 230 238 227 217 212 210 228 225 216 210
308 345 120 110 303 5 135 283 112 102 106 100 95 92 82 71 69 77 72 71 57 45 24 10 2 356 354 337 346 324 326 334 331 330 326 324 330 290 249 241 243 240 224 214 206 204 207 214 214